[[{"header":{"parameterUnit":"m.s-1","parameterCategory":2,"la1":30.2991,"la2":30.254,"lo1":-89.0895,"lo2":-89.0444,"dy":0.0017,"dx":0.0017,"nx":28,"ny":28,"refTime":"2025-04-11T03:00:00:Z","depth":"0","parameterNumber":2,"parameterNumberName":"U-component_of_CURRENTS"},"data":[0,0,0,0,0,0,0,0,0,0,0,0,0,0,0,0,0,0,0,0,0,0,0,0,0,0,0,0,0,0,0,0,0,0,0,0,0,0,0,0,0,0,0,0,0,0,0,0,0,0,0,0,0,0,0,0,0,0,0.1973,0.1973,0,0.1981,0.1981,0.1981,0.1954,0.1954,0.1953,0.1952,0.1872,0.1871,0.1869,0,0,0,0,0,0,0,0,0,0,0,0,0,0.1916,0.1917,0.1973,0.1974,0.1974,0.1981,0.1981,0.1981,0.1954,0.1954,0.1953,0.1952,0.1873,0.1871,0.1869,0,0,0,0,0,0,0,0,0,0,0,0,0,0.1932,0.1917,0.1973,0.1963,0.1962,0.1981,0.1981,0.1981,0.1954,0.1954,0.1953,0.1952,0.1873,0.1871,0.1869,0.1872,0,0,0.1862,0.1861,0,0,0,0,0,0,0,0,0.1931,0.1933,0.1964,0.1964,0.1963,0.1968,0.1931,0.1941,0.1955,0.1955,0.1952,0.1951,0.1898,0.1894,0.1895,0.1868,0.1865,0.1861,0.186,0.1859,0.1858,0,0,0,0,0,0,0,0.193,0.1933,0.1974,0.1965,0.1964,0.1952,0.1953,0.1933,0.1928,0.1955,0.1954,0.1958,0.1897,0.1898,0.1893,0.1864,0.1861,0.1859,0.1858,0.1857,0.1894,0.1897,0,0,0,0,0,0,0.1936,0.1932,0.1974,0.1974,0.1947,0.1954,0.1955,0.1965,0.193,0.1925,0.1959,0.1957,0.1902,0.1896,0.189,0.1932,0.1859,0.1857,0.1855,0.1892,0.1895,0.1897,0,0,0,0,0,0,0.1935,0.194,0.1973,0.1955,0.1958,0.1956,0.1968,0.1966,0.1972,0.1935,0.1928,0.1967,0.1901,0.1893,0.189,0.1927,0.1856,0.1853,0.1889,0.1893,0.1896,0.1989,0,0,0,0,0,0,0.1933,0.1939,0.1951,0.1956,0.196,0.2001,0.1969,0.1967,0.1977,0.1974,0.1939,0.1931,0.19,0.1894,0.1888,0.1922,0.1852,0.1886,0.1891,0.1895,0.1983,0.1996,0.2006,0,0,0,0,0,0.1931,0.1954,0.1952,0.1957,0.1976,0.2003,0.2005,0.1997,0.1978,0.1995,0.1971,0.1932,0.1919,0.1894,0.1886,0.192,0.1884,0.1889,0.1895,0.1978,0.1993,0.2006,0,0,0,0,0,0,0.1938,0.1954,0.1951,0.1979,0.1997,0.1999,0.2015,0.2006,0.2002,0.1993,0.1951,0.1943,0.1955,0.1931,0.1904,0.1949,0.19,0.1904,0.1966,0.198,0.1991,0.2001,0.185,0,0,0,0,0,0.1946,0.1968,0.1981,0.2006,0.2017,0.2017,0.2026,0.2022,0.2018,0.2015,0.1992,0.1975,0.1973,0.1969,0.1957,0.1975,0.2002,0.1998,0.201,0.202,0.2026,0.2115,0.2136,0.1915,0.1915,0.1915,0,0,0.1955,0.1969,0.198,0.2009,0.2019,0.2036,0.202,0.2042,0.2054,0.2006,0.2014,0.2007,0.1987,0.201,0.2015,0.1992,0.2104,0.2027,0.2035,0.2036,0.2123,0.2145,0.2164,0.1919,0.1918,0.1918,0,0,0.1977,0.1999,0.2017,0.2036,0.2058,0.2062,0.2072,0.2082,0.2087,0.2096,0.2076,0.2101,0.2075,0.2092,0.209,0.2162,0.2159,0.2157,0.2223,0.2311,0.233,0.2347,0.2436,0.246,0.2167,0.2167,0.2167,0,0.1982,0.2007,0.2029,0.2049,0.2064,0.2075,0.2092,0.2107,0.2114,0.2135,0.2106,0.2139,0.2119,0.2177,0.2202,0.2188,0.2236,0.2167,0.2327,0.2344,0.236,0.2446,0.2472,0.2172,0.2172,0.2171,0.2171,0,0.2009,0.203,0.2049,0.2073,0.2099,0.2122,0.2144,0.2172,0.2172,0.2189,0.2244,0.2242,0.2268,0.2277,0.225,0.2361,0.2361,0.2329,0.2291,0.2388,0.2473,0.2498,0.218,0.2178,0.2176,0.2175,0,0,0.2,0.2052,0.2056,0.2072,0.2111,0.2134,0.2176,0.2224,0.2263,0.2288,0.2349,0.2373,0.2395,0.2397,0.2399,0.2472,0.2627,0.245,0.2453,0.2538,0.2838,0.2888,0.2919,0.2627,0.2631,0.2634,0.2863,0,0.2005,0.2043,0.207,0.2107,0.2128,0.2166,0.2207,0.2259,0.2298,0.2366,0.2414,0.2462,0.2436,0.2462,0.2539,0.2593,0.2692,0.2569,0.2732,0.2737,0.2769,0.295,0.289,0.3093,0.2887,0.2891,0.2894,0,0.2005,0.2035,0.2069,0.2128,0.2143,0.2168,0.2252,0.2291,0.2397,0.2434,0.2517,0.2551,0.2667,0.2621,0.2808,0.2733,0.2802,0.2847,0.2857,0.2884,0.2833,0.2958,0.3145,0.3028,0.2932,0.2929,0.2926,0,0.1979,0.2031,0.2059,0.2077,0.2147,0.2178,0.2218,0.2313,0.237,0.2491,0.2552,0.2679,0.2751,0.2861,0.2961,0.2898,0.3172,0.3092,0.3215,0.3219,0.319,0.3185,0.3279,0.3254,0.3253,0.3253,0.3252,0,0.1968,0.1989,0.2048,0.2065,0.2114,0.2166,0.2234,0.23,0.2411,0.25,0.2589,0.2692,0.2815,0.297,0.304,0.3237,0.3252,0.3282,0.3305,0.3224,0.3219,0.3128,0.3053,0.3261,0.3259,0.3258,0.3256,0,0.1936,0.197,0.2009,0.2079,0.2101,0.2139,0.2232,0.2298,0.2395,0.252,0.2566,0.2747,0.2959,0.3103,0.3306,0.3353,0.3443,0.3572,0.3477,0.3486,0.3457,0.339,0.3428,0.3331,0.3751,0.3754,0.3756,0,0.1921,0.1938,0.201,0.2042,0.2073,0.213,0.2184,0.2281,0.2357,0.2553,0.2626,0.2862,0.3044,0.339,0.3536,0.3747,0.3578,0.3783,0.3649,0.351,0.3451,0.327,0.3168,0.3656,0.3657,0.3658,0.3659,0,0.1899,0.1927,0.1967,0.2035,0.2087,0.2142,0.222,0.2273,0.2405,0.2531,0.2734,0.2898,0.324,0.3455,0.3728,0.3824,0.361,0.3815,0.3697,0.3438,0.3222,0.3119,0.344,0.367,0.3669,0.3668,0.3668,0.3667,0.1883,0.191,0.1971,0.2035,0.209,0.2151,0.2181,0.2286,0.241,0.2574,0.2752,0.2976,0.3285,0.3678,0.375,0.3819,0.3729,0.3737,0.3689,0.3534,0.3372,0.3736,0.3963,0.3964,0.3965,0.3965,0.3965,0,0.1871,0.1912,0.1972,0.2039,0.2082,0.2125,0.2207,0.2234,0.2354,0.2559,0.2737,0.3062,0.3319,0.3525,0.3743,0.3685,0.3494,0.3596,0.3291,0.3211,0.3585,0.3509,0.3616,0.3616,0.3616,0.3616,0.3616,0.3616,0.1866,0.1913,0.1952,0.2013,0.2056,0.2084,0.2114,0.2174,0.2295,0.2494,0.2671,0.2852,0.3198,0.3519,0.3555,0.3493,0.3187,0.3144,0.3053,0.3275,0.328,0.3285,0.3194,0.3233,0.3233,0.2557,0.2552,0.2549]},{"header":{"parameterUnit":"m.s-1","parameterCategory":2,"la1":30.2991,"la2":30.254,"lo1":-89.0895,"lo2":-89.0444,"dy":0.0017,"dx":0.0017,"nx":28,"ny":28,"refTime":"2025-04-11T03:00:00:Z","depth":"0","parameterNumber":3,"parameterNumberName":"V-component_of_CURRENTS"},"data":[0,0,0,0,0,0,0,0,0,0,0,0,0,0,0,0,0,0,0,0,0,0,0,0,0,0,0,0,0,0,0,0,0,0,0,0,0,0,0,0,0,0,0,0,0,0,0,0,0,0,0,0,0,0,0,0,0,0,-0.0701,-0.0702,0,-0.0793,-0.0794,-0.0795,-0.0858,-0.0858,-0.0859,-0.0859,-0.0888,-0.0888,-0.0889,0,0,0,0,0,0,0,0,0,0,0,0,0,-0.0591,-0.0592,-0.0701,-0.0702,-0.0703,-0.0793,-0.0794,-0.0795,-0.0858,-0.0858,-0.0859,-0.086,-0.0888,-0.0888,-0.0889,0,0,0,0,0,0,0,0,0,0,0,0,0,-0.0655,-0.0593,-0.07,-0.0746,-0.0751,-0.0792,-0.0794,-0.0795,-0.0858,-0.0858,-0.0859,-0.086,-0.0888,-0.0888,-0.0889,-0.0875,0,0,-0.089,-0.089,0,0,0,0,0,0,0,0,-0.0652,-0.0659,-0.0738,-0.0743,-0.0748,-0.0815,-0.0766,-0.0819,-0.0857,-0.0816,-0.0859,-0.086,-0.0858,-0.0861,-0.0876,-0.0877,-0.0878,-0.089,-0.089,-0.089,-0.0891,0,0,0,0,0,0,0,-0.0647,-0.0656,-0.0736,-0.0739,-0.0745,-0.0765,-0.0775,-0.0777,-0.083,-0.082,-0.0825,-0.0836,-0.086,-0.0876,-0.0877,-0.0878,-0.089,-0.089,-0.0891,-0.0891,-0.0885,-0.0885,0,0,0,0,0,0,-0.0636,-0.0651,-0.0733,-0.0739,-0.0702,-0.0767,-0.0778,-0.0792,-0.0831,-0.0839,-0.0835,-0.0839,-0.0875,-0.0877,-0.0878,-0.0858,-0.089,-0.0891,-0.0891,-0.0885,-0.0885,-0.0885,0,0,0,0,0,0,-0.0633,-0.0642,-0.073,-0.0698,-0.071,-0.0768,-0.0784,-0.0794,-0.0808,-0.0844,-0.085,-0.0839,-0.0875,-0.0878,-0.0886,-0.086,-0.0891,-0.0891,-0.0886,-0.0885,-0.0885,-0.0822,0,0,0,0,0,0,-0.063,-0.0641,-0.0639,-0.0697,-0.0712,-0.0737,-0.0783,-0.0795,-0.0815,-0.082,-0.0849,-0.0853,-0.0876,-0.0885,-0.0887,-0.0861,-0.0892,-0.0886,-0.0886,-0.0885,-0.0824,-0.0819,-0.0814,0,0,0,0,0,-0.0625,-0.061,-0.0638,-0.0648,-0.071,-0.0736,-0.0744,-0.0788,-0.0814,-0.0806,-0.0843,-0.0852,-0.0881,-0.0886,-0.0887,-0.0861,-0.0887,-0.0886,-0.0885,-0.0826,-0.082,-0.0815,0,0,0,0,0,0,-0.0545,-0.0617,-0.0649,-0.0653,-0.0688,-0.0747,-0.0742,-0.0779,-0.0804,-0.0808,-0.0849,-0.0854,-0.0854,-0.0867,-0.0871,-0.0859,-0.0884,-0.0883,-0.0839,-0.0833,-0.0828,-0.0802,-0.0892,0,0,0,0,0,-0.0531,-0.0546,-0.0611,-0.0609,-0.0626,-0.0684,-0.0699,-0.0732,-0.0767,-0.078,-0.0807,-0.0833,-0.085,-0.085,-0.0868,-0.0854,-0.0865,-0.0839,-0.0834,-0.0829,-0.081,-0.0835,-0.083,-0.0882,-0.0882,-0.0882,0,0,-0.0495,-0.0537,-0.0543,-0.0593,-0.0625,-0.063,-0.0694,-0.0708,-0.0709,-0.0775,-0.0776,-0.0815,-0.0846,-0.0843,-0.0842,-0.0849,-0.0816,-0.0828,-0.0824,-0.0807,-0.0833,-0.0828,-0.0824,-0.0881,-0.0881,-0.0881,0,0,-0.0426,-0.0472,-0.0462,-0.0491,-0.0538,-0.0576,-0.0578,-0.0636,-0.0659,-0.0672,-0.0726,-0.0752,-0.077,-0.0794,-0.0807,-0.078,-0.0796,-0.0784,-0.0727,-0.0751,-0.0747,-0.0743,-0.073,-0.0725,-0.0774,-0.0774,-0.0774,0,-0.0376,-0.0387,-0.0455,-0.0453,-0.0467,-0.0547,-0.0531,-0.0561,-0.0614,-0.0625,-0.0657,-0.0712,-0.0743,-0.0746,-0.0746,-0.0765,-0.0774,-0.0746,-0.0743,-0.074,-0.0738,-0.0725,-0.0721,-0.077,-0.0771,-0.0771,-0.0771,0,-0.0312,-0.0318,-0.0308,-0.0342,-0.0359,-0.0357,-0.0418,-0.0433,-0.0478,-0.0519,-0.0543,-0.0605,-0.0635,-0.0654,-0.0692,-0.0687,-0.0697,-0.0741,-0.0755,-0.0728,-0.0717,-0.0714,-0.0766,-0.0767,-0.0768,-0.0769,0,0,-0.0209,-0.0255,-0.0251,-0.0255,-0.0306,-0.0313,-0.0311,-0.034,-0.0336,-0.04,-0.0394,-0.0459,-0.0512,-0.053,-0.0588,-0.0613,-0.0608,-0.0662,-0.0665,-0.064,-0.0633,-0.0588,-0.0581,-0.0659,-0.0659,-0.0659,-0.0625,0,-0.0137,-0.0114,-0.0156,-0.0123,-0.0121,-0.0187,-0.0177,-0.0213,-0.0255,-0.0268,-0.0349,-0.0371,-0.0458,-0.0476,-0.0516,-0.0586,-0.06,-0.061,-0.0669,-0.067,-0.0627,-0.0577,-0.0565,-0.0531,-0.0622,-0.0622,-0.0622,0,-0.0068,-0.0066,-0.0029,-0.0039,-0.004,-0.003,-0.0042,-0.0046,-0.0091,-0.0122,-0.0171,-0.0238,-0.0282,-0.0368,-0.0456,-0.046,-0.0533,-0.0593,-0.0594,-0.0569,-0.0619,-0.0578,-0.0522,-0.0738,-0.0618,-0.0618,-0.0618,0,0.0008,0.0022,0.0051,0.0046,0.0027,0.0039,0.003,-0.0003,0.0005,-0.0035,-0.0027,-0.011,-0.0132,-0.0246,-0.0364,-0.0415,-0.0447,-0.0535,-0.0556,-0.0553,-0.056,-0.0558,-0.0712,-0.059,-0.059,-0.059,-0.059,0,0.0078,0.0105,0.0088,0.0099,0.0147,0.0107,0.0149,0.0126,0.0121,0.0154,0.0048,0.0074,-0.0107,-0.0154,-0.0296,-0.0381,-0.0391,-0.0516,-0.0537,-0.0535,-0.0531,-0.0733,-0.0838,-0.0589,-0.0589,-0.0589,-0.059,0,0.0147,0.0133,0.0167,0.0169,0.0174,0.0202,0.022,0.0254,0.0234,0.0282,0.0278,0.0227,0.0181,0.0027,-0.0119,-0.026,-0.0462,-0.0405,-0.0362,-0.0379,-0.062,-0.0718,-0.0822,-0.0898,-0.0429,-0.0428,-0.0427,0,0.0182,0.0203,0.0221,0.0252,0.0254,0.0286,0.0318,0.0305,0.035,0.0387,0.0434,0.0415,0.0436,0.0269,0.0035,-0.015,-0.0372,-0.03,-0.0406,-0.0599,-0.0727,-0.0809,-0.0873,-0.0388,-0.0386,-0.0385,-0.0384,0,0.0257,0.0257,0.0283,0.0343,0.038,0.0429,0.0476,0.0533,0.0544,0.0615,0.0718,0.0749,0.0603,0.0459,0.0201,0.0017,-0.0431,-0.0281,-0.0515,-0.0713,-0.0779,-0.0873,-0.0426,-0.0374,-0.0375,-0.0376,-0.0376,-0.0377,0.0317,0.0353,0.0389,0.0448,0.0499,0.0584,0.0646,0.0728,0.0842,0.0975,0.0973,0.1081,0.0793,0.0467,0.0195,-0.0327,-0.0337,-0.0531,-0.063,-0.0692,-0.0782,-0.0276,-0.0234,-0.0234,-0.0234,-0.0234,-0.0234,0,0.0396,0.0436,0.05,0.0572,0.0652,0.0654,0.0768,0.0852,0.1025,0.118,0.13,0.1263,0.0895,0.0445,-0.0214,-0.0616,-0.0805,-0.0864,-0.1034,-0.1083,-0.0669,-0.0687,-0.07,-0.07,-0.07,-0.0699,-0.0699,-0.0699,0.0445,0.052,0.055,0.0697,0.0755,0.0871,0.0945,0.1087,0.1223,0.1459,0.1573,0.1625,0.1271,0.0051,-0.0825,-0.1045,-0.1374,-0.1398,-0.1552,-0.1352,-0.1332,-0.1312,-0.136,-0.1513,-0.1514,-0.1946,-0.195,-0.1954]}],[{"header":{"parameterUnit":"m.s-1","parameterCategory":2,"la1":30.2991,"la2":30.254,"lo1":-89.0895,"lo2":-89.0444,"dy":0.0017,"dx":0.0017,"nx":28,"ny":28,"refTime":"2025-04-11T03:00:00:Z","depth":"2","parameterNumber":2,"parameterNumberName":"U-component_of_CURRENTS"},"data":[0,0,0,0,0,0,0,0,0,0,0,0,0,0,0,0,0,0,0,0,0,0,0,0,0,0,0,0,0,0,0,0,0,0,0,0,0,0,0,0,0,0,0,0,0,0,0,0,0,0,0,0,0,0,0,0,0,0,0.1673,0.1673,0,0.1704,0.1704,0.1704,0.1698,0.1698,0.1698,0.1697,0.164,0.1639,0.1638,0,0,0,0,0,0,0,0,0,0,0,0,0,0.1592,0.1593,0.1673,0.1673,0.1674,0.1704,0.1704,0.1705,0.1699,0.1698,0.1698,0.1697,0.1641,0.1639,0.1638,0,0,0,0,0,0,0,0,0,0,0,0,0,0.1624,0.1594,0.1673,0.1676,0.1676,0.1704,0.1704,0.1705,0.1699,0.1698,0.1697,0.1697,0.1641,0.1639,0.1638,0.1639,0,0,0.1632,0.1632,0,0,0,0,0,0,0,0,0.1622,0.1626,0.1675,0.1676,0.1676,0.1698,0.1655,0.1679,0.1699,0.1688,0.1697,0.1697,0.1653,0.165,0.1656,0.1636,0.1634,0.1632,0.1631,0.163,0.163,0,0,0,0,0,0,0,0.162,0.1625,0.1683,0.1675,0.1677,0.167,0.1674,0.166,0.1671,0.1689,0.1689,0.1696,0.1653,0.1658,0.1655,0.1633,0.1632,0.1631,0.163,0.1629,0.1652,0.1654,0,0,0,0,0,0,0.1621,0.1623,0.1682,0.1684,0.1649,0.1673,0.1677,0.169,0.1673,0.1671,0.1696,0.1696,0.1661,0.1657,0.1652,0.1691,0.163,0.1629,0.1628,0.165,0.1652,0.1654,0,0,0,0,0,0,0.162,0.1627,0.1681,0.1655,0.1662,0.1675,0.169,0.1691,0.1708,0.168,0.1675,0.1713,0.1661,0.1655,0.1662,0.1687,0.1628,0.1627,0.1649,0.1651,0.1653,0.1742,0,0,0,0,0,0,0.1617,0.1626,0.164,0.1656,0.1664,0.1712,0.1691,0.1693,0.1713,0.1712,0.1692,0.1686,0.166,0.1665,0.1661,0.1683,0.1625,0.1646,0.165,0.1653,0.1737,0.1747,0.1756,0,0,0,0,0,0.1614,0.1639,0.1641,0.1648,0.1682,0.1713,0.1717,0.1722,0.1715,0.1732,0.1723,0.1687,0.1681,0.1666,0.166,0.1682,0.1645,0.1649,0.1652,0.1733,0.1745,0.1756,0,0,0,0,0,0,0.1618,0.1641,0.1644,0.1676,0.1699,0.1713,0.1733,0.1733,0.1742,0.1741,0.1708,0.1702,0.1719,0.1692,0.1675,0.1699,0.1657,0.166,0.172,0.1732,0.1741,0.1736,0.1624,0,0,0,0,0,0.1625,0.1646,0.1669,0.1697,0.1711,0.1724,0.1738,0.1744,0.1752,0.1756,0.1744,0.1732,0.173,0.1724,0.1717,0.1727,0.1748,0.1738,0.1748,0.1756,0.175,0.1818,0.1834,0.1666,0.1666,0.1666,0,0,0.1631,0.1651,0.1661,0.1699,0.1716,0.1739,0.1731,0.1764,0.1779,0.1747,0.1768,0.1767,0.1742,0.1761,0.1765,0.1739,0.1824,0.1761,0.1768,0.1757,0.1824,0.184,0.1855,0.1669,0.1668,0.1668,0,0,0.1649,0.1679,0.1694,0.172,0.1754,0.1766,0.1779,0.1805,0.1814,0.1838,0.1823,0.1841,0.183,0.1826,0.1818,0.1875,0.1877,0.1874,0.191,0.1978,0.1993,0.2005,0.2096,0.2116,0.1873,0.1873,0.1873,0,0.1649,0.1677,0.1706,0.1732,0.1749,0.1778,0.1796,0.1821,0.1845,0.1857,0.1854,0.1878,0.1859,0.1882,0.1903,0.1895,0.1945,0.1869,0.1992,0.2005,0.2016,0.2106,0.2127,0.1878,0.1877,0.1877,0.1876,0,0.1669,0.1699,0.1718,0.1752,0.1782,0.181,0.1843,0.1875,0.1891,0.191,0.1952,0.1953,0.1964,0.197,0.1948,0.2017,0.2035,0.2004,0.1965,0.2039,0.2129,0.2149,0.1884,0.1883,0.1881,0.188,0,0,0.163,0.1709,0.1714,0.173,0.1791,0.1811,0.1859,0.1897,0.1928,0.197,0.2012,0.2027,0.2047,0.204,0.2036,0.2085,0.2224,0.2083,0.2084,0.2177,0.2412,0.2326,0.234,0.2226,0.2229,0.2232,0.2458,0,0.1623,0.1663,0.171,0.1748,0.1765,0.182,0.1858,0.1907,0.1955,0.2013,0.2046,0.2087,0.207,0.2091,0.2144,0.2197,0.2274,0.2167,0.2321,0.2326,0.2243,0.2358,0.2171,0.2347,0.2478,0.2481,0.2484,0,0.1603,0.1637,0.1669,0.1732,0.1746,0.1782,0.1848,0.189,0.1987,0.2028,0.2098,0.2139,0.2223,0.2196,0.2353,0.2294,0.2363,0.2407,0.2416,0.2308,0.2275,0.2285,0.2378,0.2517,0.2514,0.2512,0.251,0,0.1526,0.1595,0.1616,0.164,0.1726,0.1755,0.1801,0.1893,0.1946,0.2055,0.2123,0.2218,0.2294,0.2385,0.2487,0.244,0.2673,0.2614,0.2613,0.2609,0.246,0.2436,0.2741,0.274,0.274,0.2739,0.2739,0,0.1478,0.1498,0.1587,0.1602,0.1643,0.1712,0.1775,0.1839,0.1954,0.2038,0.2133,0.2228,0.2348,0.249,0.2552,0.2664,0.274,0.2647,0.2662,0.2489,0.2466,0.2595,0.2575,0.2748,0.2746,0.2744,0.2743,0,0.14,0.1453,0.1489,0.1579,0.1613,0.1644,0.177,0.1822,0.1935,0.2059,0.2106,0.2287,0.2455,0.2583,0.2757,0.2751,0.2852,0.2873,0.2672,0.2656,0.2732,0.2714,0.2889,0.2888,0.2887,0.2886,0.2886,0,0.1369,0.1377,0.147,0.1505,0.1556,0.1624,0.1681,0.1799,0.187,0.209,0.2151,0.2361,0.2483,0.2718,0.276,0.2877,0.2907,0.2744,0.2577,0.275,0.2749,0.2732,0.2716,0.2456,0.2452,0.2449,0.2446,0,0.1319,0.1352,0.139,0.146,0.1522,0.159,0.1683,0.1737,0.1889,0.2009,0.2191,0.231,0.2522,0.2545,0.2673,0.2699,0.2692,0.2672,0.2957,0.2411,0.2349,0.2345,0.2342,0.2416,0.2419,0.2421,0.2423,0.2424,0.1288,0.1302,0.1353,0.1414,0.1484,0.1547,0.1575,0.1686,0.1794,0.1933,0.2107,0.2218,0.2312,0.238,0.2394,0.2413,0.2558,0.2454,0.2462,0.2475,0.2347,0.2282,0.2317,0.232,0.2322,0.2323,0.2325,0,0.1235,0.1263,0.1311,0.1369,0.1404,0.1479,0.1567,0.1582,0.1673,0.1815,0.1937,0.1869,0.1938,0.2048,0.203,0.206,0.2023,0.1989,0.192,0.1954,0.1983,0.1825,0.166,0.1657,0.1655,0.1653,0,0,0.1207,0.1215,0.1238,0.1271,0.1324,0.1354,0.1388,0.1437,0.1516,0.1541,0.1589,0.1772,0.1943,0.1726,0.1755,0.17,0.1796,0.1648,0.2189,0.2139,0.2163,0.2274,0.2072,0,0,0,0,0]},{"header":{"parameterUnit":"m.s-1","parameterCategory":2,"la1":30.2991,"la2":30.254,"lo1":-89.0895,"lo2":-89.0444,"dy":0.0017,"dx":0.0017,"nx":28,"ny":28,"refTime":"2025-04-11T03:00:00:Z","depth":"2","parameterNumber":3,"parameterNumberName":"V-component_of_CURRENTS"},"data":[0,0,0,0,0,0,0,0,0,0,0,0,0,0,0,0,0,0,0,0,0,0,0,0,0,0,0,0,0,0,0,0,0,0,0,0,0,0,0,0,0,0,0,0,0,0,0,0,0,0,0,0,0,0,0,0,0,0,-0.0377,-0.0378,0,-0.0481,-0.0482,-0.0483,-0.0554,-0.0554,-0.0555,-0.0555,-0.0584,-0.0585,-0.0585,0,0,0,0,0,0,0,0,0,0,0,0,0,-0.0261,-0.0263,-0.0376,-0.0378,-0.0379,-0.048,-0.0482,-0.0483,-0.0554,-0.0554,-0.0555,-0.0555,-0.0584,-0.0585,-0.0585,0,0,0,0,0,0,0,0,0,0,0,0,0,-0.0333,-0.0263,-0.0376,-0.0426,-0.0431,-0.048,-0.0482,-0.0484,-0.0554,-0.0554,-0.0555,-0.0555,-0.0584,-0.0585,-0.0585,-0.0576,0,0,-0.0587,-0.0587,0,0,0,0,0,0,0,0,-0.0329,-0.0338,-0.0417,-0.0422,-0.0428,-0.0504,-0.0452,-0.0511,-0.0553,-0.0508,-0.0555,-0.0556,-0.0549,-0.0553,-0.0574,-0.0577,-0.0579,-0.0587,-0.0587,-0.0588,-0.0588,0,0,0,0,0,0,0,-0.0324,-0.0334,-0.0419,-0.0418,-0.0425,-0.045,-0.0461,-0.0464,-0.0523,-0.0512,-0.0517,-0.0527,-0.0552,-0.0573,-0.0574,-0.0579,-0.0587,-0.0588,-0.0588,-0.0588,-0.0589,-0.0589,0,0,0,0,0,0,-0.0308,-0.0329,-0.0415,-0.0422,-0.0378,-0.0451,-0.0464,-0.048,-0.0525,-0.0533,-0.0526,-0.053,-0.0572,-0.0574,-0.0576,-0.057,-0.0588,-0.0588,-0.0589,-0.059,-0.0589,-0.0589,0,0,0,0,0,0,-0.0305,-0.0315,-0.0411,-0.0376,-0.039,-0.0452,-0.047,-0.0482,-0.0511,-0.0537,-0.0543,-0.0545,-0.0572,-0.0575,-0.06,-0.0571,-0.0588,-0.0589,-0.059,-0.0589,-0.0589,-0.0555,0,0,0,0,0,0,-0.0301,-0.0313,-0.0317,-0.0375,-0.0392,-0.0433,-0.047,-0.0483,-0.0515,-0.0521,-0.0554,-0.0557,-0.0573,-0.0599,-0.06,-0.0572,-0.0589,-0.059,-0.059,-0.0589,-0.0557,-0.0554,-0.0551,0,0,0,0,0,-0.0297,-0.0295,-0.0316,-0.0327,-0.0396,-0.0433,-0.0443,-0.049,-0.0515,-0.052,-0.0561,-0.0557,-0.0595,-0.06,-0.0602,-0.0573,-0.0591,-0.059,-0.0589,-0.0558,-0.0555,-0.0551,0,0,0,0,0,0,-0.0242,-0.0303,-0.0328,-0.0344,-0.0383,-0.0444,-0.0453,-0.0489,-0.0528,-0.0534,-0.0567,-0.0573,-0.0583,-0.0586,-0.0591,-0.0572,-0.0585,-0.0585,-0.0561,-0.0558,-0.0555,-0.0525,-0.059,0,0,0,0,0,-0.0231,-0.0248,-0.0308,-0.0318,-0.0337,-0.0397,-0.0418,-0.0451,-0.0494,-0.0513,-0.0542,-0.0564,-0.0579,-0.0578,-0.0595,-0.0584,-0.0588,-0.0563,-0.056,-0.0557,-0.0535,-0.0547,-0.0543,-0.0587,-0.0587,-0.0587,0,0,-0.0209,-0.0247,-0.0255,-0.0307,-0.0343,-0.0358,-0.0411,-0.0439,-0.0448,-0.0505,-0.0527,-0.0562,-0.058,-0.0581,-0.0581,-0.0578,-0.0547,-0.0556,-0.0554,-0.0532,-0.0545,-0.0541,-0.0537,-0.0586,-0.0586,-0.0586,0,0,-0.0169,-0.0211,-0.0211,-0.0242,-0.0291,-0.0327,-0.0334,-0.0398,-0.0423,-0.0454,-0.0496,-0.0522,-0.0543,-0.0553,-0.0558,-0.0545,-0.0544,-0.054,-0.0486,-0.0498,-0.0494,-0.0491,-0.049,-0.0487,-0.0524,-0.0524,-0.0524,0,-0.0135,-0.0154,-0.0213,-0.0222,-0.0236,-0.031,-0.0305,-0.0341,-0.0404,-0.0412,-0.045,-0.0498,-0.0525,-0.0513,-0.0516,-0.0534,-0.0539,-0.0499,-0.0494,-0.0491,-0.0488,-0.0488,-0.0484,-0.0522,-0.0522,-0.0523,-0.0523,0,-0.0102,-0.0115,-0.0116,-0.0152,-0.0173,-0.0183,-0.0237,-0.0259,-0.0305,-0.0341,-0.0363,-0.0422,-0.0439,-0.0454,-0.0483,-0.0463,-0.0474,-0.0502,-0.05,-0.0481,-0.0482,-0.048,-0.052,-0.052,-0.0521,-0.0521,0,0,-0.0025,-0.0079,-0.0079,-0.0082,-0.0137,-0.0148,-0.0157,-0.0182,-0.0174,-0.0247,-0.0236,-0.0295,-0.0334,-0.0342,-0.0382,-0.0395,-0.0397,-0.0431,-0.0433,-0.0425,-0.0411,-0.0455,-0.0456,-0.0428,-0.0427,-0.0427,-0.042,0,0.0023,0.0026,-0.0013,0.0002,-0.0002,-0.0056,-0.0051,-0.0081,-0.0119,-0.0129,-0.0193,-0.0207,-0.0287,-0.0293,-0.0322,-0.0376,-0.0388,-0.0395,-0.0434,-0.0435,-0.0472,-0.0454,-0.0433,-0.0429,-0.0418,-0.0418,-0.0417,0,0.0066,0.0062,0.0081,0.0075,0.0073,0.0076,0.0076,0.0069,0.0038,0.0011,-0.0024,-0.0078,-0.0108,-0.0185,-0.0257,-0.0258,-0.0324,-0.0375,-0.0377,-0.0422,-0.0473,-0.0447,-0.0425,-0.0413,-0.0413,-0.0414,-0.0414,0,0.0131,0.013,0.015,0.0144,0.0125,0.0138,0.0134,0.0113,0.0127,0.0102,0.0112,0.0049,0.0033,-0.0064,-0.0186,-0.0216,-0.0263,-0.032,-0.0417,-0.042,-0.0409,-0.0413,-0.0363,-0.0363,-0.0363,-0.0363,-0.0364,0,0.0181,0.0199,0.0183,0.0189,0.0235,0.0202,0.0248,0.0233,0.024,0.0274,0.019,0.0212,0.0062,0.0006,-0.0126,-0.0253,-0.0218,-0.0392,-0.0419,-0.0399,-0.0402,-0.0396,-0.0399,-0.0363,-0.0363,-0.0363,-0.0363,0,0.0227,0.0215,0.0241,0.0246,0.0255,0.0283,0.0313,0.035,0.0345,0.0392,0.0392,0.0351,0.0269,0.0119,-0.0017,-0.016,-0.0288,-0.0342,-0.0303,-0.0327,-0.0451,-0.0453,-0.0449,-0.045,-0.0452,-0.0453,-0.0453,0,0.0242,0.0258,0.0284,0.0312,0.0313,0.0351,0.0385,0.0392,0.0438,0.0478,0.0517,0.047,0.043,0.0217,-0.0021,-0.0241,-0.0273,-0.037,-0.0444,-0.0432,-0.0459,-0.0459,-0.0459,-0.0409,-0.041,-0.041,-0.041,0,0.0279,0.0288,0.031,0.037,0.041,0.0464,0.0516,0.0573,0.0598,0.0652,0.0723,0.0702,0.0484,0.0267,-0.0046,-0.02,-0.0343,-0.0388,-0.036,-0.0406,-0.0398,-0.0424,-0.0424,-0.0413,-0.0413,-0.0413,-0.0413,-0.0412,0.0306,0.0337,0.0375,0.0433,0.0493,0.058,0.0648,0.0721,0.0818,0.0889,0.0856,0.0824,0.055,0.0148,-0.0102,-0.0358,-0.0375,-0.048,-0.0477,-0.0474,-0.0485,-0.0482,-0.0513,-0.0513,-0.0514,-0.0514,-0.0514,0,0.0335,0.0379,0.0439,0.0515,0.0596,0.0623,0.0743,0.0828,0.0966,0.0978,0.1005,0.0752,0.0483,0.0202,-0.0193,-0.0456,-0.0459,-0.0517,-0.0469,-0.0465,-0.0462,-0.0471,-0.0497,-0.0497,-0.0497,-0.0497,0,0,0.0354,0.0412,0.0446,0.0583,0.0659,0.0797,0.0882,0.1016,0.1076,0.1091,0.1044,0.0906,0.056,0.0275,-0.0066,-0.027,-0.0301,-0.0305,-0.0298,-0.0198,-0.0191,-0.0428,-0.0437,0,0,0,0,0]}],[{"header":{"parameterUnit":"m.s-1","parameterCategory":2,"la1":30.2991,"la2":30.254,"lo1":-89.0895,"lo2":-89.0444,"dy":0.0017,"dx":0.0017,"nx":28,"ny":28,"refTime":"2025-04-11T03:00:00:Z","depth":"4","parameterNumber":2,"parameterNumberName":"U-component_of_CURRENTS"},"data":[0,0,0,0,0,0,0,0,0,0,0,0,0,0,0,0,0,0,0,0,0,0,0,0,0,0,0,0,0,0,0,0,0,0,0,0,0,0,0,0,0,0,0,0,0,0,0,0,0,0,0,0,0,0,0,0,0,0,0.0782,0.0783,0,0.0861,0.0861,0.0862,0.091,0.091,0.091,0.0911,0.0964,0.0965,0.0966,0,0,0,0,0,0,0,0,0,0,0,0,0,0.0668,0.0669,0.0781,0.0783,0.0784,0.086,0.0861,0.0862,0.0909,0.091,0.0911,0.0911,0.0964,0.0965,0.0966,0,0,0,0,0,0,0,0,0,0,0,0,0,0.0726,0.067,0.0781,0.0819,0.0823,0.086,0.0861,0.0862,0.0909,0.091,0.0911,0.0911,0.0963,0.0965,0.0966,0.0961,0,0,0.097,0.0971,0,0,0,0,0,0,0,0,0.0723,0.073,0.0812,0.0816,0.0821,0.0878,0.0841,0.0895,0.0909,0.0874,0.0911,0.0912,0.0934,0.0938,0.0948,0.0963,0.0966,0.0971,0.0971,0.0972,0.0973,0,0,0,0,0,0,0,0.0719,0.0727,0.081,0.0813,0.0819,0.0831,0.0839,0.0851,0.0896,0.0877,0.0881,0.0894,0.0936,0.0946,0.0949,0.0966,0.0971,0.0972,0.0973,0.0973,0.1039,0.104,0,0,0,0,0,0,0.0714,0.0723,0.0808,0.0813,0.0776,0.0832,0.0842,0.0857,0.0897,0.0905,0.0893,0.0896,0.0943,0.0948,0.0951,0.1006,0.0972,0.0973,0.0974,0.1038,0.1039,0.104,0,0,0,0,0,0,0.0711,0.0721,0.0805,0.0772,0.0784,0.0834,0.085,0.0858,0.0891,0.091,0.0917,0.092,0.0944,0.0949,0.0988,0.1006,0.0974,0.0975,0.1037,0.1039,0.104,0.1078,0,0,0,0,0,0,0.0708,0.0719,0.0733,0.0771,0.0785,0.0839,0.085,0.0859,0.0897,0.0902,0.0935,0.0939,0.0945,0.0986,0.0989,0.1008,0.0977,0.1036,0.1038,0.104,0.1076,0.1081,0.1085,0,0,0,0,0,0.0703,0.0716,0.0733,0.0744,0.0801,0.084,0.0848,0.0883,0.0898,0.0914,0.0944,0.094,0.0998,0.0988,0.0992,0.1011,0.1035,0.1038,0.1039,0.1074,0.108,0.1085,0,0,0,0,0,0,0.0672,0.0723,0.0743,0.077,0.0809,0.0849,0.0869,0.0894,0.0929,0.0939,0.0955,0.0962,0.1,0.1,0.0988,0.1034,0.1014,0.1017,0.1039,0.1044,0.1049,0.1057,0.0978,0,0,0,0,0,0.0671,0.0697,0.0745,0.0769,0.0789,0.0833,0.0855,0.0882,0.0917,0.0935,0.0962,0.0986,0.1007,0.1023,0.1039,0.1066,0.1078,0.108,0.1084,0.1088,0.1097,0.111,0.1116,0.1047,0.1047,0.1047,0,0,0.0665,0.0699,0.0713,0.0765,0.0798,0.0829,0.0848,0.0889,0.092,0.0933,0.0985,0.1003,0.1017,0.1051,0.1068,0.1058,0.1122,0.1091,0.1094,0.1101,0.1112,0.1119,0.1125,0.1048,0.1048,0.1048,0,0,0.066,0.0697,0.0716,0.0751,0.0807,0.0836,0.0853,0.0906,0.0937,0.0985,0.1002,0.1038,0.1072,0.1091,0.1101,0.1139,0.1144,0.1141,0.1174,0.1185,0.1191,0.1196,0.1254,0.1264,0.1144,0.1144,0.1144,0,0.065,0.0687,0.0727,0.0756,0.079,0.0841,0.0871,0.0906,0.0969,0.0996,0.1006,0.1074,0.109,0.113,0.1151,0.115,0.1171,0.1152,0.1191,0.1196,0.1201,0.1258,0.1269,0.1146,0.1146,0.1146,0.1146,0,0.066,0.0696,0.0712,0.0769,0.0806,0.0843,0.0899,0.0941,0.0985,0.1023,0.1083,0.1114,0.1155,0.1164,0.1175,0.1217,0.123,0.1194,0.1177,0.121,0.1269,0.1279,0.1149,0.1149,0.1148,0.1148,0,0,0.0623,0.0702,0.0711,0.0742,0.0821,0.085,0.0907,0.0971,0.1013,0.1071,0.1123,0.1174,0.1202,0.1216,0.1233,0.1253,0.132,0.1247,0.1246,0.1305,0.1387,0.1295,0.1298,0.1286,0.1288,0.1288,0.1428,0,0.0624,0.0672,0.0718,0.0773,0.0806,0.0872,0.0923,0.0987,0.1045,0.1106,0.1151,0.121,0.1216,0.1252,0.1271,0.1308,0.1343,0.1289,0.1346,0.1349,0.1262,0.1304,0.1292,0.1436,0.1438,0.144,0.1441,0,0.0623,0.0659,0.0708,0.0788,0.0809,0.085,0.0943,0.0998,0.1088,0.1135,0.1197,0.124,0.1315,0.1295,0.1384,0.135,0.138,0.14,0.1404,0.1308,0.1273,0.1387,0.1459,0.1457,0.1456,0.1455,0.1454,0,0.0583,0.0655,0.0695,0.0723,0.0815,0.0854,0.0913,0.1007,0.1065,0.1165,0.1218,0.1292,0.1354,0.1388,0.1437,0.1427,0.151,0.1493,0.1446,0.1442,0.1467,0.146,0.1542,0.1542,0.1542,0.1541,0.1541,0,0.0572,0.0604,0.068,0.0702,0.0755,0.0836,0.0904,0.0975,0.108,0.1144,0.1236,0.1292,0.1376,0.143,0.1459,0.1483,0.153,0.1469,0.1463,0.1486,0.1479,0.1477,0.1468,0.1546,0.1545,0.1544,0.1543,0,0.0528,0.058,0.0622,0.0708,0.0739,0.078,0.0896,0.0945,0.1061,0.1147,0.1191,0.1323,0.1414,0.1474,0.1547,0.1514,0.1538,0.1526,0.1585,0.1576,0.1478,0.1469,0.1533,0.1531,0.1529,0.1527,0.1526,0,0.0514,0.053,0.0605,0.0628,0.067,0.074,0.0792,0.092,0.097,0.1148,0.1176,0.1322,0.1392,0.1443,0.1499,0.156,0.1529,0.1544,0.1487,0.1486,0.1474,0.1468,0.1462,0.1523,0.1522,0.1522,0.1521,0,0.0474,0.0499,0.0526,0.057,0.0618,0.067,0.075,0.0786,0.0934,0.1044,0.1155,0.1239,0.1337,0.1409,0.145,0.1476,0.1533,0.1524,0.1528,0.1476,0.1474,0.1462,0.1459,0.1514,0.1515,0.1516,0.1516,0,0.0436,0.0435,0.0467,0.0506,0.0556,0.0595,0.0646,0.0725,0.0806,0.1005,0.1031,0.1193,0.1312,0.1367,0.1394,0.1421,0.1429,0.1385,0.1397,0.1405,0.1293,0.1266,0.125,0,0,0,0,0,0.0401,0.0392,0.0407,0.0438,0.0483,0.0524,0.0617,0.0673,0.0809,0.0864,0.0955,0.1047,0.1166,0.1242,0.1254,0.1346,0.1417,0.1353,0.1366,0.1477,0.1485,0.1361,0,0,0,0,0,0,0.0374,0.0376,0.038,0.0378,0.0393,0.0441,0.0506,0.0597,0.0632,0.0782,0.0851,0.0974,0.1095,0.1147,0.1229,0.1253,0.124,0.145,0.1447,0.1473,0.148,0.1486,0.1361,0,0,0,0,0]},{"header":{"parameterUnit":"m.s-1","parameterCategory":2,"la1":30.2991,"la2":30.254,"lo1":-89.0895,"lo2":-89.0444,"dy":0.0017,"dx":0.0017,"nx":28,"ny":28,"refTime":"2025-04-11T03:00:00:Z","depth":"4","parameterNumber":3,"parameterNumberName":"V-component_of_CURRENTS"},"data":[0,0,0,0,0,0,0,0,0,0,0,0,0,0,0,0,0,0,0,0,0,0,0,0,0,0,0,0,0,0,0,0,0,0,0,0,0,0,0,0,0,0,0,0,0,0,0,0,0,0,0,0,0,0,0,0,0,0,0.0097,0.0096,0,0.0048,0.0047,0.0047,0.0027,0.0027,0.0027,0.0027,-0.0034,-0.0036,-0.0037,0,0,0,0,0,0,0,0,0,0,0,0,0,0.0141,0.0141,0.0097,0.0096,0.0096,0.0048,0.0047,0.0047,0.0027,0.0027,0.0027,0.0027,-0.0033,-0.0035,-0.0037,0,0,0,0,0,0,0,0,0,0,0,0,0,0.011,0.0141,0.0097,0.0081,0.0079,0.0048,0.0047,0.0046,0.0026,0.0027,0.0027,0.0027,-0.0033,-0.0035,-0.0038,-0.0059,0,0,-0.0046,-0.0047,0,0,0,0,0,0,0,0,0.0111,0.0108,0.0084,0.0082,0.0079,0.0044,0.0041,0.0011,0.0026,0.0046,0.0027,0.0027,-0.0009,-0.0013,-0.0024,-0.0062,-0.0065,-0.0046,-0.0048,-0.0049,-0.005,0,0,0,0,0,0,0,0.0114,0.011,0.0077,0.0083,0.008,0.0065,0.0061,0.0035,0.0017,0.0044,0.0043,0.0038,-0.001,-0.0021,-0.0025,-0.0066,-0.0046,-0.0048,-0.005,-0.0051,-0.0141,-0.0142,0,0,0,0,0,0,0.0122,0.0112,0.0078,0.0075,0.0097,0.0064,0.0059,0.0055,0.0017,0.0012,0.0038,0.0037,-0.0017,-0.0022,-0.0028,-0.007,-0.0049,-0.0051,-0.0053,-0.014,-0.0141,-0.0142,0,0,0,0,0,0,0.0124,0.012,0.008,0.0093,0.0087,0.0063,0.0058,0.0054,0.0041,0.0013,0.0008,0.003,-0.0017,-0.0024,-0.0061,-0.0072,-0.0053,-0.0055,-0.014,-0.0141,-0.0142,-0.0145,0,0,0,0,0,0,0.0125,0.0121,0.0118,0.0094,0.0087,0.0059,0.0058,0.0053,0.0038,0.0037,0.0004,-0.0001,-0.0017,-0.0057,-0.0063,-0.0075,-0.0057,-0.0139,-0.014,-0.0141,-0.0144,-0.0146,-0.0148,0,0,0,0,0,0.0127,0.0117,0.0118,0.0113,0.0084,0.0058,0.0053,0.0036,0.0038,0.0027,0.0003,0.0,-0.007,-0.006,-0.0067,-0.008,-0.0138,-0.014,-0.0141,-0.0143,-0.0146,-0.0148,0,0,0,0,0,0,0.0127,0.0114,0.0114,0.0099,0.0081,0.0055,0.0042,0.0036,0.0009,0.0007,-0.0015,-0.0023,-0.0057,-0.0071,-0.0058,-0.0111,-0.0103,-0.0106,-0.0102,-0.0104,-0.0106,-0.0095,-0.0059,0,0,0,0,0,0.0129,0.0122,0.0105,0.0092,0.0085,0.0066,0.0053,0.0044,0.0018,0.0007,-0.0016,-0.0043,-0.0071,-0.0088,-0.0115,-0.0147,-0.0157,-0.0159,-0.0161,-0.0163,-0.0159,-0.0177,-0.018,-0.0148,-0.0148,-0.0148,0,0,0.0124,0.0116,0.0111,0.0092,0.0077,0.0059,0.0058,0.0038,0.0021,0.0004,-0.0031,-0.0052,-0.0081,-0.0117,-0.0134,-0.013,-0.0182,-0.0165,-0.0166,-0.0161,-0.0179,-0.0182,-0.0184,-0.0149,-0.0149,-0.0149,0,0,0.0106,0.0105,0.0092,0.008,0.0062,0.0051,0.0047,0.0021,0.001,-0.0025,-0.004,-0.0068,-0.0114,-0.0136,-0.0152,-0.0182,-0.0191,-0.0191,-0.0195,-0.0212,-0.0215,-0.0217,-0.0252,-0.0258,-0.0193,-0.0193,-0.0193,0,0.0099,0.0087,0.0082,0.0066,0.0059,0.0048,0.0034,0.0014,-0.0021,-0.0028,-0.0037,-0.0096,-0.0122,-0.0158,-0.0172,-0.0186,-0.0202,-0.0181,-0.0214,-0.0216,-0.0218,-0.0254,-0.026,-0.0193,-0.0193,-0.0193,-0.0193,0,0.0072,0.0065,0.0055,0.0039,0.0027,0.0013,-0.0005,-0.0018,-0.003,-0.0046,-0.0079,-0.0117,-0.0146,-0.0164,-0.0182,-0.021,-0.022,-0.0212,-0.0203,-0.0221,-0.0258,-0.0264,-0.0194,-0.0194,-0.0194,-0.0193,0,0,0.0048,0.004,0.0036,0.0041,0.0018,0.0011,-0.0014,-0.0032,-0.0034,-0.0074,-0.0086,-0.0143,-0.0149,-0.0168,-0.019,-0.0213,-0.0255,-0.0221,-0.0222,-0.025,-0.0309,-0.0297,-0.0302,-0.0249,-0.025,-0.025,-0.0336,0,0.0029,0.0016,0.0009,-0.0001,-0.0003,-0.0009,-0.0024,-0.0039,-0.0056,-0.0072,-0.0106,-0.0129,-0.0155,-0.0164,-0.0195,-0.0234,-0.0268,-0.0234,-0.0293,-0.0295,-0.0276,-0.0307,-0.0252,-0.034,-0.0341,-0.0342,-0.0343,0,0.0004,0.0006,-0.0003,0.0011,0.0009,-0.0002,-0.0,-0.0016,-0.0041,-0.0052,-0.008,-0.0103,-0.0152,-0.0162,-0.0245,-0.0222,-0.0268,-0.0301,-0.0305,-0.0292,-0.0292,-0.0315,-0.0354,-0.0353,-0.0352,-0.0351,-0.0351,0,0.0008,0.0001,0.0004,0.0003,0.0005,0.0006,0.0005,-0.001,-0.0006,-0.0037,-0.0034,-0.0095,-0.0116,-0.0181,-0.0258,-0.0252,-0.0345,-0.0342,-0.038,-0.0381,-0.0363,-0.0359,-0.0398,-0.0398,-0.0398,-0.0398,-0.0398,0,-0.0001,0.0002,0.0011,0.0015,0.0032,0.0024,0.0037,0.0029,0.0022,0.0034,-0.0017,-0.0023,-0.0118,-0.018,-0.0256,-0.034,-0.0347,-0.0388,-0.0399,-0.0367,-0.0362,-0.0369,-0.0364,-0.0401,-0.04,-0.04,-0.0399,0,-0.0001,0.0,0.0014,0.0026,0.0035,0.0047,0.007,0.0082,0.0072,0.0084,0.0079,0.0024,-0.0057,-0.0158,-0.0271,-0.0326,-0.0413,-0.044,-0.0415,-0.0422,-0.0442,-0.0437,-0.0495,-0.0495,-0.0496,-0.0496,-0.0496,0,-0.0004,0.0001,0.0029,0.0047,0.0053,0.0076,0.0097,0.0103,0.012,0.0118,0.0127,0.0058,0.001,-0.0142,-0.0258,-0.0413,-0.0424,-0.0478,-0.045,-0.0446,-0.0451,-0.0445,-0.044,-0.0496,-0.0496,-0.0496,-0.0496,0,-0.0005,0.0004,0.002,0.0059,0.0087,0.0126,0.0155,0.0176,0.0188,0.0186,0.0179,0.0101,0.0008,-0.0125,-0.0248,-0.0354,-0.0448,-0.048,-0.048,-0.0455,-0.0448,-0.0451,-0.0446,-0.0497,-0.0497,-0.0497,-0.0497,0,-0.0006,0.0008,0.0032,0.007,0.0111,0.0159,0.0177,0.0206,0.0226,0.0231,0.0224,0.0127,0.0064,-0.0095,-0.0208,-0.0315,-0.0337,-0.0363,-0.037,-0.0371,-0.0304,-0.0276,-0.0286,0,0,0,0,0,-0.0009,0.0009,0.0043,0.0089,0.0133,0.0162,0.021,0.0227,0.0247,0.0256,0.0246,0.0166,0.0012,-0.0062,-0.0165,-0.0229,-0.0373,-0.0354,-0.0411,-0.05,-0.05,-0.044,0,0,0,0,0,0,-0.0014,0.0012,0.0038,0.0098,0.0136,0.019,0.0225,0.0243,0.025,0.0255,0.0175,0.0145,-0.0013,0.0074,-0.0165,-0.02,-0.0249,-0.0428,-0.043,-0.0501,-0.05,-0.0499,-0.0438,0,0,0,0,0]}]]